EW9154 Weather Reports


Display with metric or nautical units.
time (UTC)temp
F
wind
direction
speed
MPH
gust
MPH
rain 1hr
in
rain 24hr
in
rain mn
in
humidity
%
barometer
mb
20260905114810 67 29 0.0 0.0 0.00 0.00 0.00 96 1029.9
20260905114241 67 44 0.0 0.0 0.00 0.00 0.00 96 1029.7
20260905113736 67 5 0.0 0.0 0.00 0.00 0.00 96 1029.7
20260905113237 67 5 0.0 1.0 0.00 0.00 0.00 96 1029.4
20260905113007 67 11 0.0 1.0 0.00 0.00 0.00 96 1029.4
20260905112231 67 69 0.0 1.0 0.00 0.00 0.00 96 1029.3
20260905111732 67 88 0.0 1.0 0.00 0.00 0.00 96 1029.2
20260905111215 67 20 0.0 6.0 0.00 0.00 0.00 96 1029.3
20260905110630 67 20 0.0 0.0 0.00 0.00 0.00 96 1029.3
20260905110107 67 13 0.0 0.0 0.00 0.00 0.00 96 1029.4
20260905105548 67 18 0.0 0.0 0.00 0.00 0.00 96 1029.6
20260905105026 67 44 0.0 0.0 0.00 0.00 0.00 96 1029.6
20260905104504 67 17 0.0 0.0 0.00 0.00 0.00 96 1029.3
20260905104002 67 16 0.0 0.0 0.00 0.00 0.00 96 1029.3
20260905103732 67 11 0.0 0.0 0.00 0.00 0.00 96 1029.2
20260905103001 67 11 0.0 0.0 0.00 0.00 0.00 96 1029.3
20260905102500 67 16 0.0 0.0 0.00 0.00 0.00 96 1029.1
20260905102440 67 45 0.0 1.0 0.00 0.00 0.00 96 1029.2
20260905101411 67 63 0.0 0.0 0.00 0.00 0.00 96 1029.1
20260905100844 67 14 0.0 0.0 0.00 0.00 0.00 95 1028.8
20260905100338 67 26 0.0 1.0 0.00 0.00 0.00 95 1028.8
20260905095837 67 38 0.0 1.0 0.00 0.00 0.00 95 1029.1
20260905095315 67 38 0.0 1.0 0.00 0.00 0.00 95 1029.1
20260905094809 67 19 0.0 1.0 0.00 0.00 0.00 95 1028.7
20260905094310 67 22 0.0 1.0 0.00 0.00 0.00 95 1028.4
20260905093743 67 35 0.0 0.0 0.00 0.00 0.00 95 1028.4
20260905093245 67 18 0.0 2.0 0.00 0.00 0.00 95 1028.4
20260905092717 67 19 0.0 2.0 0.00 0.00 0.00 95 1028.4
20260905092213 67 53 0.0 1.0 0.00 0.00 0.00 95 1028.4
20260905091712 67 28 0.0 1.0 0.00 0.00 0.00 95 1028.4
20260905091146 67 21 0.0 1.0 0.00 0.00 0.00 95 1028.5
20260905090631 67 24 0.0 0.0 0.00 0.00 0.00 95 1028.6
20260905090104 67 38 0.0 0.0 0.00 0.00 0.00 95 1028.8
20260905085559 67 48 0.0 0.0 0.00 0.00 0.00 95 1028.9
20260905085030 67 35 0.0 0.0 0.00 0.00 0.00 94 1029.0
20260905084505 67 33 0.0 0.0 0.00 0.00 0.00 94 1028.9
20260905083943 67 31 0.0 0.0 0.00 0.00 0.00 94 1028.8
20260905083432 67 31 0.0 1.0 0.00 0.00 0.00 94 1028.8
20260905082928 67 21 0.0 1.0 0.00 0.00 0.00 94 1028.9
20260905082426 67 22 0.0 1.0 0.00 0.00 0.00 94 1028.8
20260905081857 67 34 0.0 1.0 0.00 0.00 0.00 93 1028.8
20260905081355 67 32 0.0 0.0 0.00 0.00 0.00 93 1028.8
20260905080828 67 355 0.0 0.0 0.00 0.00 0.00 93 1028.8
20260905080536 67 348 0.0 0.0 0.00 0.00 0.00 93 1028.9
20260905075804 67 36 0.0 0.0 0.00 0.00 0.00 93 1029.1
20260905075238 67 36 0.0 0.0 0.00 0.00 0.00 93 1029.0
20260905074711 67 36 0.0 0.0 0.00 0.00 0.00 93 1029.1
20260905074147 67 28 0.0 0.0 0.00 0.00 0.00 92 1029.1
20260905073644 67 30 0.0 0.0 0.00 0.00 0.00 92 1029.0
20260905073147 67 30 0.0 0.0 0.00 0.00 0.00 92 1029.2
20260905072622 68 23 0.0 0.0 0.00 0.00 0.00 92 1029.2
20260905072557 68 28 0.0 0.0 0.00 0.00 0.00 92 1029.0
20260905071800 68 36 0.0 0.0 0.00 0.00 0.00 91 1028.9
20260905071021 68 32 0.0 0.0 0.00 0.00 0.00 91 1029.1
20260905070518 68 22 0.0 0.0 0.00 0.00 0.00 91 1029.2
20260905070238 68 36 0.0 0.0 0.00 0.00 0.00 91 1029.2
20260905065506 68 37 0.0 0.0 0.00 0.00 0.00 91 1029.1
20260905064939 68 32 0.0 0.0 0.00 0.00 0.00 91 1029.2
20260905064413 69 32 0.0 0.0 0.00 0.00 0.00 91 1029.1
20260905063909 69 25 0.0 0.0 0.00 0.00 0.00 90 1029.1
20260905063406 69 34 0.0 0.0 0.00 0.00 0.00 90 1029.1
20260905062858 69 34 0.0 0.0 0.00 0.00 0.00 90 1029.1
20260905062329 69 33 0.0 0.0 0.00 0.00 0.00 90 1029.0
20260905062057 69 33 0.0 0.0 0.00 0.00 0.00 90 1029.0
20260905061301 69 38 0.0 0.0 0.00 0.00 0.00 89 1029.0
20260905060754 69 38 0.0 0.0 0.00 0.00 0.00 89 1029.0
20260905060520 69 38 0.0 0.0 0.00 0.00 0.00 89 1028.9
20260905055727 70 38 0.0 0.0 0.00 0.00 0.00 89 1029.0
20260905055225 70 38 0.0 0.0 0.00 0.00 0.00 89 1028.9
20260905054657 70 38 0.0 0.0 0.00 0.00 0.00 88 1028.8
20260905054154 70 40 0.0 0.0 0.00 0.00 0.00 88 1028.7
20260905053651 70 40 0.0 0.0 0.00 0.00 0.00 88 1028.8
20260905053147 70 40 0.0 0.0 0.00 0.00 0.00 88 1028.9
20260905052627 71 22 0.0 0.0 0.00 0.00 0.00 87 1028.9
20260905052102 71 22 0.0 0.0 0.00 0.00 0.00 87 1028.9
20260905051536 71 18 0.0 0.0 0.00 0.00 0.00 87 1028.8
20260905051015 71 18 0.0 0.0 0.00 0.00 0.00 87 1028.6
20260905050511 71 18 0.0 0.0 0.00 0.00 0.00 87 1028.6
20260905050012 71 29 0.0 0.0 0.00 0.00 0.00 86 1028.6
20260905045516 71 30 0.0 0.0 0.00 0.00 0.00 86 1028.6
20260905045219 72 68 0.0 0.0 0.00 0.00 0.00 86 1028.5
20260905044445 72 17 0.0 0.0 0.00 0.00 0.00 85 1028.4
20260905043922 72 36 0.0 0.0 0.00 0.00 0.00 84 1028.6
20260905043917 72 23 0.0 0.0 0.00 0.00 0.00 85 1028.5
20260905042858 72 28 0.0 0.0 0.00 0.00 0.00 84 1028.6
20260905042401 73 27 0.0 0.0 0.00 0.00 0.00 84 1028.6
20260905041837 73 26 0.0 0.0 0.00 0.00 0.00 83 1028.6
20260905041833 73 22 0.0 0.0 0.00 0.00 0.00 83 1028.5
20260905040803 73 24 0.0 0.0 0.00 0.00 0.00 83 1028.6
20260905040532 73 16 0.0 0.0 0.00 0.00 0.00 83 1028.6
20260905040006 74 24 0.0 0.0 0.00 0.00 0.00 82 1028.6
20260905035506 74 24 0.0 0.0 0.00 0.00 0.00 82 1028.6
20260905034938 74 30 0.0 0.0 0.00 0.00 0.00 82 1028.5
20260905034144 74 40 0.0 0.0 0.00 0.00 0.00 81 1028.6
20260905033615 74 24 0.0 4.0 0.00 0.00 0.00 81 1028.7
20260905033052 74 18 0.0 1.0 0.00 0.00 0.00 80 1028.6
20260905032531 75 30 0.0 1.0 0.00 0.00 0.00 80 1028.5
20260905031940 75 30 0.0 0.0 0.00 0.00 0.00 79 1028.5
20260905031415 75 38 0.0 5.0 0.00 0.00 0.00 79 1028.4
20260905030848 76 40 0.0 11.0 0.00 0.00 0.00 79 1028.3
20260905030343 76 44 0.0 11.0 0.00 0.00 0.00 79 1028.2
20260905025841 76 24 0.0 1.0 0.00 0.00 0.00 78 1028.3
20260905025329 76 65 0.0 1.0 0.00 0.00 0.00 78 1028.2
20260905024827 76 51 0.0 4.0 0.00 0.00 0.00 79 1028.2
20260905024300 77 42 0.0 0.0 0.00 0.00 0.00 79 1028.1
20260905024031 77 32 0.0 1.0 0.00 0.00 0.00 79 1028.0
20260905023229 77 36 0.0 1.0 0.00 0.00 0.00 78 1027.8
20260905022728 77 37 0.0 0.0 0.00 0.00 0.00 78 1027.7
20260905022215 78 33 0.0 0.0 0.00 0.00 0.00 78 1027.7
20260905021714 78 38 0.0 0.0 0.00 0.00 0.00 78 1027.7
20260905021148 78 36 0.0 0.0 0.00 0.00 0.00 77 1027.6
20260905020649 78 45 0.0 0.0 0.00 0.00 0.00 77 1027.6
20260905020418 78 36 0.0 0.0 0.00 0.00 0.00 77 1027.5
20260905015916 78 35 0.0 0.0 0.00 0.00 0.00 77 1027.5
20260905015145 78 32 0.0 0.0 0.00 0.00 0.00 76 1027.4
20260905014648 78 55 0.0 0.0 0.00 0.00 0.00 76 1027.3
20260905014351 79 38 0.0 0.0 0.00 0.00 0.00 76 1027.3
20260905013618 79 38 0.0 0.0 0.00 0.00 0.00 75 1027.3
20260905013116 79 38 0.0 0.0 0.00 0.00 0.00 75 1027.3
20260905012617 79 42 0.0 0.0 0.00 0.00 0.00 74 1027.3
20260905012346 80 42 0.0 0.0 0.00 0.00 0.00 74 1027.3
20260905011617 80 42 0.0 0.0 0.00 0.00 0.00 73 1027.3
20260905011049 80 42 0.0 0.0 0.00 0.00 0.00 73 1027.2
20260905010547 80 44 0.0 0.0 0.00 0.00 0.00 72 1027.2
20260905010020 81 44 0.0 0.0 0.00 0.00 0.00 72 1027.2
20260905005518 81 44 0.0 0.0 0.00 0.00 0.00 71 1027.0
20260905005000 81 44 0.0 0.0 0.00 0.00 0.00 71 1027.0
20260905004734 82 43 0.0 0.0 0.00 0.00 0.00 71 1026.9
20260905003937 82 28 0.0 0.0 0.00 0.00 0.00 71 1027.0
20260905003412 82 34 0.0 0.0 0.00 0.00 0.00 71 1027.0
20260905002846 83 34 0.0 0.0 0.00 0.00 0.00 71 1026.9
20260905002319 83 34 0.0 0.0 0.00 0.00 0.00 71 1027.0
20260905001816 83 34 0.0 0.0 0.00 0.00 0.00 71 1026.9
20260905001259 83 34 0.0 0.0 0.00 0.00 0.00 70 1026.8
20260905000734 83 40 0.0 0.0 0.00 0.00 0.00 70 1026.8
20260905000208 84 40 0.0 0.0 0.00 0.00 0.00 69 1026.8
20260904235639 84 40 0.0 0.0 0.00 0.00 0.00 69 1026.8
20260904235408 84 42 0.0 0.0 0.00 0.00 0.00 68 1026.8
20260904234640 84 42 0.0 0.0 0.00 0.00 0.00 67 1026.8
20260904234104 84 51 0.0 0.0 0.00 0.00 0.00 67 1026.8
20260904233535 85 52 0.0 0.0 0.00 0.00 0.00 66 1026.7
20260904233036 85 35 0.0 0.0 0.00 0.00 0.00 66 1026.7
20260904232507 85 35 0.0 0.0 0.00 0.00 0.00 65 1026.7
20260904231944 85 36 0.0 0.0 0.00 0.00 0.00 64 1026.7
20260904231435 86 31 0.0 0.0 0.00 0.00 0.00 63 1026.6
20260904230936 86 42 0.0 0.0 0.00 0.00 0.00 62 1026.6
20260904230421 87 41 0.0 0.0 0.00 0.00 0.00 62 1026.5
20260904225924 87 39 0.0 0.0 0.00 0.00 0.00 61 1026.5
20260904225419 88 5 0.0 0.0 0.00 0.00 0.00 61 1026.5
20260904224918 88 42 0.0 0.0 0.00 0.00 0.00 60 1026.5
20260904224357 89 30 0.0 0.0 0.00 0.00 0.00 60 1026.5
20260904223835 89 53 0.0 0.0 0.00 0.00 0.00 60 1026.4
20260904223337 89 53 0.0 0.0 0.00 0.00 0.00 59 1026.4
20260904222814 90 22 0.0 0.0 0.00 0.00 0.00 59 1026.4
20260904222544 90 42 0.0 0.0 0.00 0.00 0.00 60 1026.4
20260904221816 90 39 0.0 0.0 0.00 0.00 0.00 59 1026.4
20260904221529 90 41 0.0 0.0 0.00 0.00 0.00 61 1026.3
20260904220720 89 51 0.0 0.0 0.00 0.00 0.00 61 1026.2
20260904220218 89 35 0.0 0.0 0.00 0.00 0.00 60 1026.2
20260904215656 90 49 0.0 0.0 0.00 0.00 0.00 60 1026.1
20260904215130 90 59 0.0 0.0 0.00 0.00 0.00 61 1026.0
20260904214607 89 60 0.0 0.0 0.00 0.00 0.00 61 1026.0
20260904214322 90 40 0.0 0.0 0.00 0.00 0.00 61 1025.9
20260904213550 90 27 0.0 0.0 0.00 0.00 0.00 63 1026.0
20260904213048 89 22 0.0 0.0 0.00 0.00 0.00 63 1026.0
20260904212548 89 32 0.0 0.0 0.00 0.00 0.00 62 1026.0
20260904212047 88 115 0.0 0.0 0.00 0.00 0.00 65 1026.0
20260904211818 88 47 0.0 0.0 0.00 0.00 0.00 65 1026.1
20260904211320 88 39 0.0 0.0 0.00 0.00 0.00 64 1026.1
20260904210801 89 60 0.0 1.0 0.00 0.00 0.00 64 1026.1
20260904210028 88 42 0.0 1.0 0.00 0.00 0.00 66 1026.1
20260904205528 88 38 0.0 0.0 0.00 0.00 0.00 64 1026.2
20260904205005 88 37 0.0 0.0 0.00 0.00 0.00 66 1026.2
20260904204721 87 46 0.0 0.0 0.00 0.00 0.00 66 1026.2
20260904203950 87 41 0.0 0.0 0.00 0.00 0.00 66 1026.2
20260904203716 88 42 0.0 0.0 0.00 0.00 0.00 66 1026.1
20260904202948 89 5 0.0 0.0 0.00 0.00 0.00 65 1026.2
20260904202426 88 5 0.0 0.0 0.00 0.00 0.00 66 1026.2
20260904201904 88 62 0.0 0.0 0.00 0.00 0.00 65 1026.1
20260904201338 88 35 0.0 0.0 0.00 0.00 0.00 67 1026.1
20260904200838 87 40 0.0 1.0 0.00 0.00 0.00 67 1026.1
20260904200341 87 40 0.0 0.0 0.00 0.00 0.00 66 1026.1
20260904195815 87 49 0.0 1.0 0.00 0.00 0.00 67 1026.1
20260904195528 88 44 0.0 1.0 0.00 0.00 0.00 67 1026.1
20260904194727 87 28 0.0 1.0 0.00 0.00 0.00 67 1026.2
20260904194439 88 37 0.0 2.0 0.00 0.00 0.00 67 1026.2
20260904193925 89 65 0.0 2.0 0.00 0.00 0.00 65 1026.2
20260904193157 89 66 0.0 1.0 0.00 0.00 0.00 65 1026.2
20260904192644 88 312 0.0 1.0 0.00 0.00 0.00 68 1026.2
20260904192147 88 24 0.0 0.0 0.00 0.00 0.00 69 1026.2
20260904191621 87 34 0.0 6.0 0.00 0.00 0.00 67 1026.2
20260904191053 87 30 0.0 6.0 0.00 0.00 0.00 69 1026.3
20260904190548 87 42 0.0 5.0 0.00 0.00 0.00 70 1026.3
20260904190040 87 107 0.0 5.0 0.00 0.00 0.00 69 1026.2
20260904185536 88 50 0.0 5.0 0.00 0.00 0.00 67 1026.2
20260904185306 88 69 0.0 1.0 0.00 0.00 0.00 69 1026.2
20260904184508 88 83 0.0 1.0 0.00 0.00 0.00 66 1026.2
20260904183943 89 343 0.0 0.0 0.00 0.00 0.00 67 1026.2
20260904183440 88 5 0.0 3.0 0.00 0.00 0.00 68 1026.2
20260904183158 89 44 0.0 3.0 0.00 0.00 0.00 68 1026.2
20260904182422 88 13 0.0 7.0 0.00 0.00 0.00 69 1026.2
20260904181915 88 29 0.0 7.0 0.00 0.00 0.00 67 1026.1
20260904181412 89 12 0.0 2.0 0.00 0.00 0.00 67 1026.1
20260904180910 89 68 0.0 2.0 0.00 0.00 0.00 66 1026.1
20260904180406 89 99 0.0 2.0 0.00 0.00 0.00 66 1026.1
20260904180129 89 77 0.0 1.0 0.00 0.00 0.00 67 1026.1
20260904175602 89 71 0.0 1.0 0.00 0.00 0.00 67 1026.1
20260904175058 89 15 0.0 0.0 0.00 0.01 0.00 67 1026.1
20260904174324 88 34 0.0 0.0 0.00 0.01 0.00 67 1026.0
20260904174051 89 60 0.0 0.0 0.00 0.02 0.00 68 1026.1
20260904173254 88 84 0.0 0.0 0.00 0.02 0.00 68 1025.9
20260904173014 89 42 0.0 0.0 0.00 0.02 0.00 67 1025.9
20260904172242 89 36 0.0 0.0 0.00 0.02 0.00 67 1025.9
20260904171715 89 63 0.0 0.0 0.00 0.02 0.00 68 1025.8
20260904171210 89 42 0.0 0.0 0.00 0.02 0.00 69 1025.8
20260904170709 90 33 0.0 0.0 0.00 0.02 0.00 68 1025.8
20260904170204 90 59 0.0 1.0 0.00 0.02 0.00 69 1025.7
20260904165703 90 46 0.0 1.0 0.00 0.02 0.00 68 1025.6
20260904165205 90 54 0.0 2.0 0.00 0.02 0.00 67 1025.7
20260904164636 90 30 0.0 2.0 0.00 0.02 0.00 68 1025.6
20260904164107 91 31 0.0 0.0 0.00 0.02 0.00 65 1025.6
20260904163604 90 35 0.0 0.0 0.00 0.02 0.00 68 1025.6
20260904163103 89 35 0.0 1.0 0.00 0.02 0.00 68 1025.5
20260904162604 89 42 0.0 0.0 0.00 0.02 0.00 67 1025.4
20260904162101 89 55 0.0 0.0 0.00 0.02 0.00 69 1025.4
20260904161557 89 38 0.0 0.0 0.00 0.02 0.00 69 1025.4
20260904161033 89 39 0.0 0.0 0.00 0.02 0.00 69 1025.3
20260904160506 89 232 0.0 0.0 0.00 0.02 0.00 69 1025.3
20260904160008 89 232 0.0 0.0 0.00 0.02 0.00 70 1025.2
20260904155508 88 232 0.0 0.0 0.00 0.02 0.00 71 1025.1
20260904154944 88 232 0.0 0.0 0.00 0.02 0.00 71 1025.2
20260904154416 87 232 0.0 0.0 0.00 0.02 0.00 72 1025.2
20260904153913 87 231 0.0 0.0 0.00 0.02 0.00 73 1025.2
20260904153413 86 231 0.0 0.0 0.00 0.02 0.00 73 1025.1
20260904153130 86 231 0.0 0.0 0.00 0.02 0.00 73 1025.1
20260904152357 86 231 0.0 0.0 0.00 0.02 0.00 75 1025.0
20260904151854 85 231 0.0 0.0 0.00 0.02 0.00 76 1025.0
20260904151350 84 231 0.0 0.0 0.00 0.02 0.00 77 1024.9
20260904151058 84 231 0.0 0.0 0.00 0.02 0.00 78 1024.9
20260904150543 83 231 0.0 0.0 0.00 0.02 0.00 79 1024.8
20260904145814 83 231 0.0 0.0 0.00 0.02 0.00 79 1024.8
20260904145306 82 231 0.0 0.0 0.00 0.02 0.00 80 1024.8
20260904144803 82 231 0.0 0.0 0.00 0.02 0.00 82 1024.6
20260904144234 81 231 0.0 0.0 0.00 0.02 0.00 82 1024.8
20260904143730 81 231 0.0 0.0 0.00 0.02 0.00 84 1024.8
20260904143228 80 231 0.0 0.0 0.00 0.02 0.00 85 1024.8
20260904142724 80 232 0.0 0.0 0.00 0.02 0.00 86 1024.9
20260904142227 79 232 0.0 0.0 0.00 0.02 0.00 87 1024.8
20260904141722 78 240 0.0 0.0 0.00 0.02 0.00 88 1024.8
20260904141453 78 240 0.0 0.0 0.00 0.02 0.00 88 1024.8
20260904140652 78 227 0.0 0.0 0.00 0.02 0.00 89 1024.6
20260904140150 77 227 0.0 0.0 0.00 0.02 0.00 90 1024.6
20260904135622 77 227 0.0 0.0 0.00 0.02 0.00 91 1024.5
20260904135356 76 227 0.0 0.0 0.00 0.02 0.00 91 1024.6
20260904134556 76 244 0.0 0.0 0.00 0.02 0.00 91 1024.8
20260904134055 76 219 0.0 0.0 0.00 0.02 0.00 92 1024.9
20260904133526 76 219 0.0 0.0 0.00 0.02 0.00 92 1024.8
20260904133257 76 219 0.0 0.0 0.00 0.02 0.00 92 1024.9
20260904132456 75 214 0.0 0.0 0.00 0.02 0.00 92 1024.8
20260904131949 75 221 0.0 0.0 0.00 0.02 0.00 92 1024.6
20260904131423 75 221 0.0 0.0 0.00 0.02 0.00 92 1024.5
20260904130856 75 221 0.0 0.0 0.00 0.02 0.00 93 1024.5
20260904130330 75 221 0.0 0.0 0.00 0.02 0.00 92 1024.4
20260904125805 75 223 0.0 0.0 0.00 0.02 0.00 92 1024.5
20260904125236 75 223 0.0 0.0 0.00 0.02 0.00 92 1024.3
20260904125006 75 223 0.0 0.0 0.00 0.02 0.00 92 1024.3
20260904124204 75 222 0.0 0.0 0.00 0.02 0.00 92 1024.2
20260904123651 74 222 0.0 0.0 0.00 0.02 0.00 92 1024.3
20260904123150 74 222 0.0 0.0 0.00 0.02 0.00 92 1024.1
20260904122648 74 222 0.0 0.0 0.00 0.02 0.00 91 1024.1
20260904122419 75 222 0.0 0.0 0.00 0.02 0.00 91 1024.0
20260904121921 75 222 0.0 0.0 0.00 0.02 0.00 91 1024.0
20260904121126 75 222 0.0 0.0 0.00 0.02 0.00 91 1023.9
20260904120603 75 222 0.0 0.0 0.00 0.02 0.00 91 1023.8
20260904115601 75 222 0.0 0.0 0.00 0.02 0.00 91 1023.7
20260904115100 75 222 0.0 0.0 0.00 0.02 0.00 90 1023.7